TimeCDT,TemperatureF,Dew PointF,Humidity,Sea Level PressureIn,VisibilityMPH,Wind Direction,Wind SpeedMPH,Gust SpeedMPH,PrecipitationIn,Events,Conditions,WindDirDegrees,DateUTC
1:53 AM,35.1,24.1,64,30.29,10.0,NE,5.8,-,N/A,,Clear,50,2013-04-03 06:53:00
2:53 AM,33.1,24.1,70,30.29,10.0,East,4.6,-,N/A,,Clear,80,2013-04-03 07:53:00
3:53 AM,35.6,24.8,65,30.26,10.0,East,4.6,-,N/A,,Clear,90,2013-04-03 08:53:00
4:53 AM,34.0,23.0,64,30.27,10.0,East,4.6,-,N/A,,Clear,90,2013-04-03 09:53:00
5:53 AM,32.0,24.1,73,30.30,10.0,ESE,4.6,-,N/A,,Clear,110,2013-04-03 10:53:00
6:53 AM,33.1,25.0,72,30.35,10.0,NE,4.6,-,N/A,,Clear,40,2013-04-03 11:53:00
8:53 AM,42.1,27.0,55,30.34,10.0,NE,9.2,-,N/A,,Clear,50,2013-04-03 13:53:00
9:53 AM,46.0,26.1,46,30.33,10.0,NE,12.7,-,N/A,,Clear,50,2013-04-03 14:53:00
10:53 AM,50.0,21.0,32,30.34,10.0,NE,13.8,-,N/A,,Clear,40,2013-04-03 15:53:00
11:53 AM,51.1,19.9,29,30.32,10.0,NE,13.8,23.0,N/A,,Clear,40,2013-04-03 16:53:00
12:53 PM,51.1,21.0,31,30.30,10.0,ENE,15.0,-,N/A,,Clear,60,2013-04-03 17:53:00
1:53 PM,52.0,19.9,28,30.30,10.0,ENE,15.0,20.7,N/A,,Clear,60,2013-04-03 18:53:00
2:53 PM,53.1,21.0,29,30.28,10.0,NE,15.0,-,N/A,,Clear,50,2013-04-03 19:53:00
3:53 PM,54.0,21.9,29,30.25,10.0,ENE,11.5,-,N/A,,Clear,60,2013-04-03 20:53:00
4:53 PM,54.0,23.0,30,30.24,10.0,NE,12.7,-,N/A,,Clear,50,2013-04-03 21:53:00
5:53 PM,52.0,24.1,34,30.24,10.0,NE,11.5,-,N/A,,Clear,40,2013-04-03 22:53:00
6:53 PM,50.0,21.9,33,30.23,10.0,East,10.4,-,N/A,,Clear,80,2013-04-03 23:53:00
7:53 PM,46.9,26.1,44,30.24,10.0,NE,6.9,-,N/A,,Clear,50,2013-04-04 00:53:00
8:53 PM,46.0,25.0,44,30.24,10.0,NE,8.1,-,N/A,,Clear,50,2013-04-04 01:53:00
9:53 PM,44.1,27.0,51,30.24,10.0,ENE,5.8,-,N/A,,Clear,60,2013-04-04 02:53:00
10:53 PM,43.0,26.1,51,30.23,10.0,NE,6.9,-,N/A,,Clear,50,2013-04-04 03:53:00
11:53 PM,43.0,25.0,49,30.22,10.0,NE,5.8,-,N/A,,Clear,50,2013-04-04 04:53:00